www.pogodaiklimat.ru

Погода и климат >> Архив погоды >> Германия >> Ufs Deutsche Bucht


ПОГОДА в Ufs Deutsche Bucht

  • Прогноз погоды в Ufs Deutsche Bucht
  • Монитор погоды в Ufs Deutsche Bucht
  • Климат города

АРХИВ ПОГОДЫ в Ufs Deutsche Bucht

Время (UTC), дата Ветер
(напр.,м/с)
 
Видим.   Явления Облачность Т
(С)
Тd
(С)
f
(%)
Тe
(С)
Тes
(С)
Комфортность P
(гПа)
Po
(гПа)
Тmin
(С)
Tmax
(С)
R
(мм)
R24
(мм)
S
(см)
10 15.11 З 6 10 км н/о +11.2 +6.7 74 +8 +8 1023.1 1023.1
11 15.11 СЗ 6 10 км н/о +11.4 +7.0 74 +9 +9 1023.4 1023.4
12 15.11 СЗ 6 10 км н/о +11.3 +6.3 71 +8 +8 1023.7 1023.7
14 15.11 СЗ 4 10 км н/о +11.2 +5.4 67 +9 +9 1024.0 1024.0
13 15.11 СЗ 5 10 км н/о +11.3 +5.9 69 +9 +9 1023.8 1023.8
15 15.11 СЗ 3 10 км н/о +11.1 +6.5 73 +9 +9 1024.3 1024.3
16 15.11 С 3 10 км н/о +11.0 +5.3 68 +9 +9 1024.3 1024.3
17 15.11 СЗ 1 10 км н/о +11.0 +5.3 68 +11 +11 1024.4 1024.4
18 15.11 Ю 1 10 км н/о +10.8 +5.6 70 +11 +11 1024.6 1024.6 +10.4 +11.6
20 15.11 Ю 4 10 км н/о +10.4 +6.9 79 +8 +8 1024.2 1024.2
19 15.11 В 1 10 км н/о +11.0 +5.9 71 +11 +11 1024.3 1024.3
21 15.11 10 км н/о +10.9 +7.3 78 1024.0 1024.0
22 15.11 Ю 5 10 км н/о +10.4 +8.3 87 +7 +7 1023.8 1023.8
23 15.11 Ю 5 10 км н/о +10.3 +9.1 92 +7 +7 1023.5 1023.5
00 16.11 ЮВ 6 5000 м н/о +10.6 +9.4 92 +7 +7 1023.1 1023.1
02 16.11 7000 м н/о +9.8 +8.8 93 1022.4 1022.4
01 16.11 5000 м н/о +9.9 +8.9 93 1022.6 1022.6
03 16.11 ЮЗ 8 8000 м н/о +9.7 +8.9 95 +5 +5 1022.1 1022.1
04 16.11 ЮЗ 8 6000 м н/о +9.9 +9.0 94 +6 +6 1021.5 1021.5
05 16.11 ЮЗ 9 4700 м н/о +9.8 +8.9 94 +5 +5 1020.7 1020.7
06 16.11 ЮЗ 9 9000 м н/о +10.0 +9.1 94 +6 +6 1020.4 1020.4 +9.4 +11.3
08 16.11 ЮЗ 10 3100 м н/о +10.0 +9.2 95 +5 +5 1020.4 1020.4
07 16.11 ЮЗ 9 4100 м н/о +10.0 +9.3 95 +6 +6 1020.4 1020.4
09 16.11 ЮЗ 10
{13}
5000 м н/о +10.2 +9.3 94 +6 +6 1020.3 1020.3
10 16.11 ЮЗ 11
{13}
3900 м н/о +10.1 +9.3 95 +5 +5 1020.1 1020.1
11 16.11 ЮЗ 10
{13}
6000 м н/о +10.3 +9.2 93 +6 +6 1019.9 1019.9
12 16.11 ЮЗ 11
{13}
8000 м н/о +10.2 +9.0 92 +5 +5 1019.3 1019.3
14 16.11 ЮЗ 13
{14}
8000 м н/о +10.5 +9.0 90 +6 +6 1018.7 1018.7
13 16.11 ЮЗ 11
{14}
8000 м н/о +10.4 +9.0 91 +6 +6 1018.9 1018.9
15 16.11 ЮЗ 12
{15}
7000 м н/о +10.7 +9.4 92 +6 +6 1018.2 1018.2
16 16.11 ЮЗ 13
{15}
4400 м н/о +10.9 +9.7 92 +6 +6 1017.8 1017.8
17 16.11 ЮЗ 12
{15}
6000 м н/о +11.1 +9.7 91 +7 +7 1017.6 1017.6
18 16.11 ЮЗ 11
{15}
4400 м н/о +11.2 +9.9 92 +7 +7 1017.4 1017.4 +9.7 +11.3
20 16.11 СЗ 11
{16}
10 км н/о +10.4 +7.2 81 +6 +6 1019.2 1019.2
19 16.11 СЗ 13
{16}
9000 м н/о +10.8 +7.2 78 +6 +6 1018.2 1018.2
21 16.11 11
{16}
10 км н/о +10.6 +4.8 67 1020.2 1020.2
22 16.11
{16}
7000 м н/о +9.1 +4.5 73 1020.9 1020.9
23 16.11 СЗ 10
{16}
10 км н/о +10.2 +3.4 63 +6 +6 1021.5 1021.5
00 17.11 СЗ 11
{16}
10 км н/о +10.1 +0.1 50 +6 +6 1021.8 1021.8
02 17.11
{13}
10 км н/о +9.9 +1.2 55 1022.8 1022.8
01 17.11
{15}
10 км н/о +10.0 +0.6 52 1022.3 1022.3
03 17.11 СЗ 8
{15}
10 км н/о +9.9 +2.0 58 +6 +6 1023.1 1023.1
04 17.11 ЮВ 8
{14}
10 км н/о +9.9 +1.3 55 +6 +6 1023.6 1023.6
05 17.11 СЗ 8 10 км н/о +9.8 +1.1 55 +6 +6 1023.8 1023.8
06 17.11 З 9
{15}
10 км н/о +9.9 +2.4 60 +6 +6 1023.9 1023.9 +9.0 +11.7
08 17.11 СЗ 8
{14}
10 км н/о +9.6 +4.0 68 +6 +6 1024.4 1024.4
07 17.11 10 км н/о +9.9 +2.4 60 1024.1 1024.1
09 17.11 З 8
{14}
10 км н/о +10.0 +2.0 58 +6 +6 1024.4 1024.4
10 17.11 З 9 10 км н/о +10.0 +0.5 52 +6 +6 1024.6 1024.6
11 17.11 З 9 2800 м н/о +10.0 +4.0 66 +6 +6 1024.4 1024.4
12 17.11 З 10
{15}
10 км н/о +8.9 +3.4 68 +4 +4 1024.2 1024.2
14 17.11
{13}
10 км н/о +10.0 +2.7 60 1023.0 1023.0
13 17.11 З 9
{13}
10 км н/о +10.4 +4.2 65 +7 +7 1023.8 1023.8
15 17.11 З 10
{15}
10 км н/о +10.2 +3.0 61 +6 +6 1022.7 1022.7
16 17.11 З 11
{13}
10 км н/о +10.0 +2.8 61 +6 +6 1022.7 1022.7
17 17.11 З 12
{17}
10 км н/о +10.2 +2.5 59 +6 +6 1021.9 1021.9
18 17.11 З 10
{17}
9000 м н/о +9.4 +3.5 67 +5 +5 1021.8 1021.8 +8.2 +10.5
20 17.11 З 12
{13}
10 км н/о +9.9 +3.7 65 +5 +5 1020.4 1020.4
19 17.11 З 10
{16}
10 км н/о +9.1 +4.3 72 +4 +4 1021.2 1021.2
21 17.11
{16}
10 км н/о +9.8 +4.9 72 1019.7 1019.7
22 17.11
{15}
10 км н/о +10.3 +1.7 55 1018.9 1018.9
23 17.11 З 12
{17}
10 км н/о +10.0 +3.6 64 +5 +5 1018.4 1018.4
00 18.11
{17}
10 км н/о +10.3 +3.2 61 1017.6 1017.6
02 18.11
{21}
10 км н/о +10.1 +5.0 71 1016.0 1016.0
01 18.11
{17}
10 км н/о +10.2 +3.8 64 1016.5 1016.5
03 18.11
{24}
7000 м н/о +9.1 +4.4 72 1015.0 1015.0
04 18.11 З 17
{21}
10 км н/о +9.4 +5.1 74 +4 +4 1013.7 1013.7
05 18.11 З 13
{20}
10 км н/о +9.3 +5.7 78 +4 +4 1012.3 1012.3
06 18.11 З 17
{24}
1900 м н/о +8.8 +5.7 81 +3 +3 1011.1 1011.1 +6.8 +10.4
08 18.11 З 21
{28}
1500 м н/о +7.6 +4.5 81 0 0 1009.9 1009.9
07 18.11
{22}
10 км н/о +10.5 +4.2 65 1009.7 1009.7
09 18.11 СЗ 13
{28}
6000 м н/о +6.6 +3.6 81 0 0 1010.0 1010.0
10 18.11 СЗ 17
{20}
4600 м н/о +7.7 +3.3 74 +1 +1 1009.8 1009.8
11 18.11 З 14
{23}
10 км н/о +9.0 +4.4 73 +4 +4 1009.0 1009.0
12 18.11 СЗ 15
{28}
2000 м н/о +9.0 +0.8 56 +4 +4 1009.2 1009.2
14 18.11 СЗ 16
{20}
10 км н/о +8.9 +2.2 63 +3 +3 1009.4 1009.4
13 18.11 СЗ 15
{19}
2600 м н/о +8.6 +1.8 62 +3 +3 1009.4 1009.4
15 18.11 СЗ 15
{21}
7000 м н/о +6.7 +2.1 72 0 0 1009.6 1009.6
16 18.11 СЗ 16
{23}
10 км н/о +9.1 +1.4 59 +4 +4 1009.3 1009.3
17 18.11 З 19
{25}
9000 м н/о +7.8 +3.9 76 +1 +1 1009.6 1009.6
18 18.11 СЗ 13
{25}
2300 м н/о +7.9 +4.5 79 +2 +2 1009.6 1009.6 +6.5 +10.6
20 18.11 З 16
{20}
10 км н/о +8.7 +3.3 69 +3 +3 1008.7 1008.7
19 18.11
{24}
10 км н/о +7.8 +3.1 72 1009.1 1009.1
21 18.11
{24}
10 км н/о +8.5 +3.1 69 1008.6 1008.6
22 18.11
{22}
5000 м н/о +7.6 +3.5 75 1008.0 1008.0
23 18.11 З 16
{23}
10 км н/о +8.8 +4.6 75 +3 +3 1007.4 1007.4
00 19.11
{24}
10 км н/о +8.8 +4.4 74 1007.0 1007.0
02 19.11
{27}
8000 м н/о +8.6 +3.3 69 1006.3 1006.3
01 19.11
{22}
9000 м н/о +8.8 +3.3 68 1006.7 1006.7
03 19.11
{27}
10 км н/о +9.5 +3.0 64 1005.6 1005.6
04 19.11 СЗ 19
{26}
10 км н/о +9.7 +4.1 68 +4 +4 1005.4 1005.4
05 19.11 СЗ 18
{27}
10 км н/о +9.7 +3.9 67 +4 +4 1005.3 1005.3
06 19.11 СЗ 19
{27}
10 км н/о +9.5 +4.6 71 +4 +4 1005.4 1005.4 +5.5 +9.9
08 19.11 СЗ 17
{26}
10 км н/о +9.7 +5.0 73 +4 +4 1006.7 1006.7
07 19.11
{23}
10 км н/о +9.8 +4.7 71 1005.9 1005.9
09 19.11 СЗ 17
{26}
10 км н/о +9.3 +4.3 71 +4 +4 1007.3 1007.3
10 19.11 СЗ 19
{23}
10 км н/о +9.6 +4.6 71 +4 +4 1008.0 1008.0
11 19.11 СЗ 17
{24}
10 км н/о +9.1 +4.3 72 +3 +3 1008.2 1008.2
12 19.11 СЗ 18
{26}
7000 м н/о +9.4 +4.8 73 +3 +3 1008.9 1008.9
14 19.11 СЗ 17
{23}
9000 м н/о +9.1 +4.6 73 +3 +3 1009.3 1009.3
13 19.11 СЗ 16
{24}
10 км н/о +9.8 +5.4 74 +4 +4 1009.1 1009.1
15 19.11 С 18
{25}
6000 м н/о +8.8 +4.7 75 +3 +3 1010.1 1010.1
16 19.11 С 15
{25}
10 км н/о +9.0 +4.9 75 +3 +3 1010.9 1010.9
17 19.11 СЗ 17
{26}
10 км н/о +9.6 +3.8 67 +4 +4 1011.2 1011.2
18 19.11 СЗ 12
{26}
10 км н/о +9.5 +4.7 72 +5 +5 1012.2 1012.2 +6.8 +10.3
20 19.11 СЗ 16
{19}
10 км н/о +9.1 +2.7 64 +3 +3 1013.8 1013.8
19 19.11 СЗ 16
{20}
10 км н/о +9.6 +2.6 62 +4 +4 1012.9 1012.9
21 19.11
{25}
10 км н/о +9.5 +2.7 63 1014.2 1014.2
22 19.11
{19}
10 км н/о +9.1 +3.3 67 1014.3 1014.3
23 19.11 СЗ 14
{21}
10 км н/о +9.0 +0.4 55 +4 +4 1014.5 1014.5
00 20.11
{25}
10 км н/о +9.1 +1.1 57 1014.5 1014.5
02 20.11
{16}
10 км н/о +8.9 +0.9 57 1014.2 1014.2
01 20.11
{21}
10 км н/о +7.9 +2.2 67 1014.6 1014.6
03 20.11
{21}
10 км н/о +8.5 +3.3 70 1014.2 1014.2
04 20.11 З 11
{15}
10 км н/о +8.4 +2.4 66 +3 +3 1014.3 1014.3
05 20.11 СЗ 9
{15}
10 км н/о +8.6 +2.3 65 +4 +4 1014.2 1014.2
06 20.11 СЗ 8
{21}
10 км н/о +8.1 +3.7 74 +4 +4 1014.1 1014.1 +7.0 +10.0
08 20.11 З 8
{14}
10 км н/о +8.4 +3.6 72 +4 +4 1013.7 1013.7
07 20.11 З 7 9000 м н/о +8.3 +3.2 70 +4 +4 1013.9 1013.9
09 20.11 З 9
{14}
10 км н/о +7.7 +3.1 73 +3 +3 1013.6 1013.6
10 20.11 З 10 10 км н/о +7.2 +3.4 77 +2 +2 1013.5 1013.5
11 20.11 З 8 10 км н/о +7.4 +4.2 80 +2 +2 1013.0 1013.0
12 20.11 ЮЗ 6
{14}
10 км н/о +7.3 +4.7 84 +3 +3 1012.4 1012.4
14 20.11 ЮВ 8 10 км н/о +7.3 +4.6 83 +2 +2 1010.9 1010.9
13 20.11 ЮЗ 5 8000 м н/о +7.0 +4.8 86 +3 +3 1011.8 1011.8
15 20.11 Ю 8 10 км н/о +7.1 +4.9 86 +2 +2 1010.3 1010.3
16 20.11 Ю 8 10 км н/о +6.7 +4.8 88 +1 +1 1009.9 1009.9
17 20.11 Ю 8 10 км н/о +6.6 +4.9 89 +1 +1 1009.3 1009.3
18 20.11 Ю 8 10 км н/о +6.5 +4.7 88 +1 +1 1008.8 1008.8 +6.4 +8.8
20 20.11 Ю 7 10 км н/о +6.3 +4.5 88 +1 +1 1008.3 1008.3
19 20.11 Ю 8 10 км н/о +6.3 +4.5 88 +1 +1 1008.4 1008.4
21 20.11 10 км н/о +6.4 +4.7 89 1008.0 1008.0
22 20.11 ЮВ 5 10 км н/о +6.6 +4.8 88 +2 +2 1007.8 1007.8
23 20.11 ЮВ 5 8000 м н/о +6.8 +5.0 88 +3 +3 1007.6 1007.6
00 21.11 8000 м н/о +6.7 +5.2 90 1007.7 1007.7
02 21.11 10 км н/о +6.9 +5.2 89 1007.9 1007.9
01 21.11 ЮВ 4 10 км н/о +6.9 +5.2 89 +3 +3 1008.1 1008.1
03 21.11 10 км н/о +7.0 +5.4 90 1008.0 1008.0
04 21.11 ЮВ 3 10 км н/о +6.8 +5.0 88 +4 +4 1008.2 1008.2
05 21.11 В 4 8000 м н/о +6.8 +5.3 90 +3 +3 1008.2 1008.2
06 21.11 В 4 5000 м н/о +6.6 +5.3 91 +3 +3 1008.2 1008.2 +6.2 +7.2
08 21.11 В 4 10 км н/о +7.0 +5.7 91 +3 +3 1008.6 1008.6
07 21.11 ЮВ 4 6000 м н/о +6.5 +5.3 92 +3 +3 1008.7 1008.7
09 21.11 ЮВ 4 10 км н/о +7.0 +5.4 90 +3 +3 1008.9 1008.9
10 21.11 ЮВ 5 9000 м н/о +7.1 +5.7 91 +3 +3 1008.8 1008.8
11 21.11 ЮВ 6 4500 м н/о +6.9 +5.7 92 +2 +2 1008.3 1008.3
12 21.11 ЮВ 6 7000 м н/о +7.0 +5.8 92 +2 +2 1007.7 1007.7
14 21.11 ЮВ 6 10 км н/о +7.3 +6.4 94 +3 +3 1006.8 1006.8
13 21.11 ЮВ 6 9000 м н/о +7.2 +6.1 93 +3 +3 1007.2 1007.2
15 21.11 ЮВ 7 10 км н/о +7.6 +6.7 94 +3 +3 1006.3 1006.3
16 21.11 ЮВ 7 10 км н/о +8.1 +7.2 94 +4 +4 1006.1 1006.1
17 21.11 ЮВ 7 8000 м н/о +8.5 +7.7 95 +4 +4 1005.8 1005.8
18 21.11 ЮВ 7 8000 м н/о +8.7 +7.9 95 +4 +4 1005.4 1005.4 +6.5 +8.9
20 21.11 ЮВ 7 2100 м н/о +10.3 +9.8 97 +6 +6 1003.6 1003.6
19 21.11 ЮВ 8 6000 м н/о +8.6 +8.0 96 +4 +4 1004.5 1004.5
21 21.11 3800 м н/о +10.7 +10.1 96 1002.9 1002.9
22 21.11 ЮЗ 11
{16}
5000 м н/о +10.9 +10.3 96 +6 +6 1002.4 1002.4
23 21.11
{14}
8000 м н/о +11.1 +10.0 93 1001.6 1001.6
00 22.11
{16}
8000 м н/о +11.0 +9.7 92 1001.0 1001.0
02 22.11
{18}
7000 м н/о +11.1 +9.9 92 999.9 999.9
01 22.11 ЮЗ 13
{17}
8000 м н/о +11.3 +9.8 90 +7 +7 1000.2 1000.2
03 22.11
{18}
4400 м н/о +11.0 +10.1 94 999.3 999.3
04 22.11 ЮЗ 15
{20}
8000 м н/о +11.0 +10.1 94 +6 +6 999.3 999.3
05 22.11 ЮЗ 14
{19}
7000 м н/о +11.1 +10.1 94 +6 +6 999.2 999.2
06 22.11 ЮЗ 15
{20}
7000 м н/о +11.3 +10.2 93 +6 +6 999.3 999.3 +8.4 +11.4
08 22.11 ЮЗ 13
{17}
3700 м н/о +11.2 +10.3 94 +7 +7 999.9 999.9
07 22.11 ЮЗ 15
{19}
5000 м н/о +11.3 +10.4 94 +6 +6 999.4 999.4

 

Местоположение метеостанции Ufs Deutsche Bucht (Германия): широта 54.18 долгота 7.43 высота над уровнем моря 3 м.

В архиве по умолчанию представлена погода в Ufs Deutsche Bucht за последнюю неделю. Архивные данные за месяц целиком и за предыдущие месяцы, начиная с января 2011 года, Вы можете получить, выбрав интересующий диапазон дат из раскрывающегося списка и нажав кнопку "Ввод!".

Внимание! Время в таблицах - всемирное. Для получения местного времени необходимо прибавить поправку, которая в Ufs Deutsche Bucht равна 1 ч.

Смотрите также архив погоды в соседних городах и на ближайших метеорологических станциях:

Погода в Helgoland (Германия) (31 км)
Погода в Norderney Island (Германия) (54 км)
Погода в Leuchtturm Alte Weser (Германия) (57 км)
Погода в Ufs Tw Ems (Германия) (70 км)
Погода в Wittmundhaven (Германия) (72 км)
Погода в St Peter-Ording (Германия) (78 км)
Погода в Cuxhaven (Германия) (90 км)
Погода в Emden-Flugplatz (Германия) (90 км)
Погода в Nordholz (Германия) (93 км)
Погода в Huibertgat (Нидерланды) (96 км)

Пояснения к столбцам:

Ветер - указаны скорость ветра в м/с - средняя за 10 мин, порывы в срок и между сроками (в фигурных скобках) и направление, откуда дует ветер: С - северный, СВ - северо-восточный, В - восточный, ЮВ - юго-восточный, Ю - южный, ЮЗ - юго-западный, З - западный, СЗ - северо-западный.
Видимость - горизонтальная дальность видимости в метрах или километрах. При видимости от 1 до 10 км при отсутствии осадков обычно наблюдается дымка, при ухудшении видимости до 1 км и менее - туман. В сухую погоду видимость может ухудшаться дымом, пылью или мглою.
Явления - указаны атмосферные явления, наблюдавшиеся в срок или в последний час перед сроком; фигурными скобками обозначены явления, наблюдавшиеся между сроками (за 1-3 часа до срока); квадратными скобками обозначены град или гололедные отложения с указанием их диаметра в мм.
Облачность - указаны через наклонную черту общая и нижняя облачность в баллах и высота нижней границы облаков в метрах; квадратными скобками обозначены формы облаков: Ci - перистые, Cs - перисто-слоистые, Cc - перисто-кучевые, Ac - высококучевые, As - высокослоистые, Sc - слоисто-кучевые, Ns - слоисто-дождевые, Cu - кучевые, Cb - кучево-дождевые. Подробнее классификацию облаков см. в Атласе облаков (PDF).
T - Температура воздуха - температура, измеренная на высоте 2 м над землей.
Td - Температура точки росы - температура, при понижении до которой содержащийся в воздухе водяной пар достигнет насыщения.
f - Относительная влажность воздуха - влажноcть воздуха, измеренная на высоте 2 м над землей.
Te - Эффективная температура - температура, которую ощущает одетый по сезону человек в тени. Характеристика душности погоды. При расчете учитывается влияние влажности воздуха и скорости ветра на теплоощущения человека.
Tes - Эффективная температура на солнце - температура, которую ощущает человек, с поправкой на солнечный нагрев. Характеристика знойности погоды. Зависит от высоты солнца над горизонтом, облачности и скорости ветра. Ночью, в пасмурную погоду, а также при ветре 12 м/с и более поправка равна нулю.
P - Атмосферное давление - приведенное к уровню моря атмосферное давление.
Po - Атмосферное давление - измеренное на уровне метеостанции атмосферное давление.
Tmin - Минимальная температура - минимум температуры воздуха на высоте 2 м над землей.
Tmax - Максимальная температура - максимум температуры воздуха на высоте 2 м над землей.
R - Количество осадков - Количество выпавших осадков за период времени, мм. При наведении курсора мыши на число - период времени, за который выпало указанное количество осадков.
R24 - Количество осадков - Количество выпавших осадков за 24 часа, мм.
S - Снежный покров - Высота снежного покрова, см. При наведении курсора мыши на число - состояние снежного покрова и степень покрытия местности в баллах.